| time (UTC) | temp F | wind direction | speed MPH | gust MPH | rain 1hr in | rain 24hr in | rain mn in | humidity % | barometer mb |
| 20260504204008 | 68 | 123 | 5.0 | 5.0 | 0.00 | 0.00 | 0.00 | 45 | 1004.1 |
| 20260504203508 | 68 | 37 | 5.0 | 7.0 | 0.00 | 0.00 | 0.00 | 45 | 1004.1 |
| 20260504203038 | 68 | 74 | 7.0 | 7.0 | 0.00 | 0.00 | 0.00 | 43 | 1004.1 |
| 20260504202539 | 68 | 81 | 5.0 | 5.0 | 0.00 | 0.00 | 0.00 | 43 | 1004.1 |
| 20260504202007 | 68 | 153 | 0.0 | 5.0 | 0.00 | 0.00 | 0.00 | 43 | 1004.1 |
| 20260504201537 | 69 | 155 | 5.0 | 6.0 | 0.00 | 0.00 | 0.00 | 43 | 1004.1 |
| 20260504201039 | 69 | 131 | 6.0 | 6.0 | 0.00 | 0.00 | 0.00 | 43 | 1004.1 |
| 20260504200537 | 69 | 81 | 0.0 | 0.0 | 0.00 | 0.00 | 0.00 | 43 | 1004.1 |
| 20260504200037 | 69 | 123 | 0.0 | 5.0 | 0.00 | 0.00 | 0.00 | 42 | 1004.1 |
| 20260504195506 | 69 | 167 | 5.0 | 8.0 | 0.00 | 0.00 | 0.00 | 43 | 1004.1 |
| 20260504195036 | 69 | 119 | 8.0 | 10.0 | 0.00 | 0.00 | 0.00 | 42 | 1004.1 |
| 20260504194506 | 70 | 350 | 10.0 | 10.0 | 0.00 | 0.00 | 0.00 | 42 | 1004.1 |
| 20260504194039 | 70 | 182 | 0.0 | 0.0 | 0.00 | 0.00 | 0.00 | 42 | 1004.1 |
| 20260504193536 | 70 | 171 | 0.0 | 0.0 | 0.00 | 0.00 | 0.00 | 42 | 1004.1 |
| 20260504193006 | 70 | 176 | 0.0 | 8.0 | 0.00 | 0.00 | 0.00 | 41 | 1004.1 |
| 20260504192537 | 71 | 168 | 8.0 | 8.0 | 0.00 | 0.00 | 0.00 | 41 | 1004.1 |
| 20260504192036 | 71 | 124 | 5.0 | 5.0 | 0.00 | 0.00 | 0.00 | 41 | 1004.1 |
| 20260504191536 | 71 | 243 | 0.0 | 5.0 | 0.00 | 0.00 | 0.00 | 41 | 1004.1 |
| 20260504191038 | 71 | 105 | 5.0 | 7.0 | 0.00 | 0.00 | 0.00 | 40 | 1004.1 |
| 20260504190534 | 71 | 307 | 7.0 | 7.0 | 0.00 | 0.00 | 0.00 | 40 | 1004.1 |
| 20260504190035 | 71 | 205 | 7.0 | 7.0 | 0.00 | 0.00 | 0.00 | 40 | 1004.1 |
| 20260504185536 | 71 | 161 | 7.0 | 8.0 | 0.00 | 0.00 | 0.00 | 40 | 1005.1 |
| 20260504185035 | 72 | 274 | 8.0 | 8.0 | 0.00 | 0.00 | 0.00 | 39 | 1005.1 |
| 20260504184534 | 72 | 17 | 5.0 | 13.0 | 0.00 | 0.00 | 0.00 | 39 | 1005.1 |
| 20260504184036 | 72 | 48 | 13.0 | 13.0 | 0.00 | 0.00 | 0.00 | 40 | 1005.1 |
| 20260504183034 | 72 | 170 | 0.0 | 8.0 | 0.00 | 0.00 | 0.00 | 39 | 1005.1 |
| 20260504182536 | 72 | 247 | 8.0 | 8.0 | 0.00 | 0.00 | 0.00 | 39 | 1005.1 |
| 20260504182033 | 73 | 258 | 5.0 | 5.0 | 0.00 | 0.00 | 0.00 | 39 | 1005.1 |
| 20260504181533 | 73 | 115 | 0.0 | 0.0 | 0.00 | 0.00 | 0.00 | 39 | 1005.1 |
| 20260504181035 | 73 | 255 | 0.0 | 10.0 | 0.00 | 0.00 | 0.00 | 39 | 1005.1 |
| 20260504180533 | 73 | 145 | 10.0 | 10.0 | 0.00 | 0.00 | 0.00 | 39 | 1005.1 |
| 20260504180033 | 73 | 131 | 7.0 | 7.0 | 0.00 | 0.00 | 0.00 | 37 | 1005.1 |
| 20260504175032 | 73 | 265 | 6.0 | 11.0 | 0.00 | 0.00 | 0.00 | 37 | 1005.1 |
| 20260504174532 | 73 | 101 | 11.0 | 11.0 | 0.00 | 0.00 | 0.00 | 37 | 1005.1 |
| 20260504174034 | 73 | 348 | 5.0 | 6.0 | 0.00 | 0.00 | 0.00 | 39 | 1005.1 |
| 20260504173533 | 73 | 183 | 6.0 | 8.0 | 0.00 | 0.00 | 0.00 | 39 | 1005.1 |
| 20260504173032 | 73 | 152 | 8.0 | 8.0 | 0.00 | 0.00 | 0.00 | 40 | 1005.1 |
| 20260504172534 | 73 | 52 | 5.0 | 5.0 | 0.00 | 0.00 | 0.00 | 40 | 1005.1 |
| 20260504171532 | 73 | 218 | 0.0 | 0.0 | 0.00 | 0.00 | 0.00 | 40 | 1005.1 |
| 20260504171033 | 73 | 14 | 0.0 | 5.0 | 0.00 | 0.00 | 0.00 | 41 | 1005.1 |
| 20260504170532 | 73 | 309 | 5.0 | 6.0 | 0.00 | 0.00 | 0.00 | 40 | 1005.1 |
| 20260504151029 | 67 | 353 | 0.0 | 7.0 | 0.00 | 0.00 | 0.00 | 46 | 1007.1 |
| 20260504150527 | 67 | 63 | 7.0 | 7.0 | 0.00 | 0.00 | 0.00 | 46 | 1007.1 |
| 20260504141024 | 66 | 29 | 0.0 | 6.0 | 0.00 | 0.00 | 0.00 | 48 | 1007.1 |
| 20260504140524 | 66 | 119 | 6.0 | 12.0 | 0.00 | 0.00 | 0.00 | 48 | 1007.1 |
| 20260504130523 | 71 | 128 | 5.0 | 5.0 | 0.00 | 0.00 | 0.00 | 57 | 1007.1 |
| 20260504100516 | 40 | 300 | 0.0 | 0.0 | 0.00 | 0.00 | 0.00 | 71 | 1007.1 |
| 20260504081513 | 39 | 300 | 0.0 | 0.0 | 0.00 | 0.00 | 0.00 | 69 | 1007.1 |
| 20260504081013 | 39 | 300 | 0.0 | 0.0 | 0.00 | 0.00 | 0.00 | 69 | 1007.1 |
| 20260504045507 | 41 | 300 | 0.0 | 0.0 | 0.00 | 0.00 | 0.00 | 64 | 1006.1 |
| 20260504045008 | 41 | 300 | 0.0 | 0.0 | 0.00 | 0.00 | 0.00 | 63 | 1006.1 |
| 20260504044538 | 41 | 300 | 0.0 | 0.0 | 0.00 | 0.00 | 0.00 | 63 | 1006.1 |
| 20260504044038 | 41 | 300 | 0.0 | 0.0 | 0.00 | 0.00 | 0.00 | 63 | 1006.1 |
| 20260504043036 | 41 | 300 | 0.0 | 0.0 | 0.00 | 0.00 | 0.00 | 63 | 1006.1 |
| 20260504042536 | 42 | 300 | 0.0 | 0.0 | 0.00 | 0.00 | 0.00 | 63 | 1006.1 |
| 20260504042006 | 42 | 300 | 0.0 | 0.0 | 0.00 | 0.00 | 0.00 | 61 | 1006.1 |
| 20260504041036 | 42 | 300 | 0.0 | 0.0 | 0.00 | 0.00 | 0.00 | 61 | 1006.1 |
| 20260504040536 | 42 | 300 | 0.0 | 0.0 | 0.00 | 0.00 | 0.00 | 60 | 1006.1 |
| 20260504040035 | 42 | 300 | 0.0 | 0.0 | 0.00 | 0.00 | 0.00 | 60 | 1006.1 |
| 20260504035006 | 42 | 300 | 0.0 | 0.0 | 0.00 | 0.00 | 0.00 | 60 | 1006.1 |
| 20260504034535 | 42 | 300 | 0.0 | 0.0 | 0.00 | 0.00 | 0.00 | 59 | 1006.1 |
| 20260504034035 | 42 | 300 | 0.0 | 0.0 | 0.00 | 0.00 | 0.00 | 59 | 1006.1 |
| 20260504033504 | 43 | 300 | 0.0 | 0.0 | 0.00 | 0.00 | 0.00 | 59 | 1006.1 |
| 20260504033035 | 43 | 300 | 0.0 | 0.0 | 0.00 | 0.00 | 0.00 | 58 | 1006.1 |
| 20260504032534 | 43 | 300 | 0.0 | 0.0 | 0.00 | 0.00 | 0.00 | 58 | 1006.1 |
| 20260504032034 | 43 | 300 | 0.0 | 0.0 | 0.00 | 0.00 | 0.00 | 57 | 1006.1 |
| 20260504031534 | 43 | 300 | 0.0 | 0.0 | 0.00 | 0.00 | 0.00 | 57 | 1006.1 |
| 20260504031034 | 43 | 300 | 0.0 | 0.0 | 0.00 | 0.00 | 0.00 | 57 | 1006.1 |
| 20260504030535 | 43 | 300 | 0.0 | 0.0 | 0.00 | 0.00 | 0.00 | 57 | 1006.1 |
| 20260504030034 | 44 | 300 | 0.0 | 0.0 | 0.00 | 0.00 | 0.00 | 55 | 1006.1 |
| 20260504024533 | 44 | 300 | 0.0 | 0.0 | 0.00 | 0.00 | 0.00 | 55 | 1006.1 |
| 20260504023536 | 44 | 300 | 0.0 | 0.0 | 0.00 | 0.00 | 0.00 | 54 | 1006.1 |
| 20260504023034 | 45 | 300 | 0.0 | 0.0 | 0.00 | 0.00 | 0.00 | 54 | 1006.1 |
| 20260504022532 | 45 | 300 | 0.0 | 0.0 | 0.00 | 0.00 | 0.00 | 53 | 1006.1 |
| 20260504022034 | 45 | 300 | 0.0 | 0.0 | 0.00 | 0.00 | 0.00 | 53 | 1006.1 |
| 20260504021532 | 45 | 300 | 0.0 | 0.0 | 0.00 | 0.00 | 0.00 | 53 | 1006.1 |
| 20260504021032 | 45 | 300 | 0.0 | 0.0 | 0.00 | 0.00 | 0.00 | 53 | 1006.1 |
| 20260504020532 | 46 | 300 | 0.0 | 0.0 | 0.00 | 0.00 | 0.00 | 53 | 1006.1 |
| 20260504015533 | 46 | 300 | 0.0 | 0.0 | 0.00 | 0.00 | 0.00 | 52 | 1006.1 |
| 20260504015031 | 46 | 300 | 0.0 | 0.0 | 0.00 | 0.00 | 0.00 | 52 | 1006.1 |
| 20260504014031 | 47 | 300 | 0.0 | 0.0 | 0.00 | 0.00 | 0.00 | 51 | 1005.1 |
| 20260504013532 | 47 | 300 | 0.0 | 0.0 | 0.00 | 0.00 | 0.00 | 51 | 1005.1 |
| 20260504013031 | 47 | 300 | 0.0 | 0.0 | 0.00 | 0.00 | 0.00 | 51 | 1005.1 |
| 20260504012532 | 47 | 300 | 0.0 | 0.0 | 0.00 | 0.00 | 0.00 | 51 | 1005.1 |
| 20260504012032 | 47 | 300 | 0.0 | 0.0 | 0.00 | 0.00 | 0.00 | 51 | 1005.1 |
| 20260504011531 | 48 | 300 | 0.0 | 0.0 | 0.00 | 0.00 | 0.00 | 51 | 1005.1 |
| 20260504011031 | 48 | 300 | 0.0 | 0.0 | 0.00 | 0.00 | 0.00 | 51 | 1005.1 |
| 20260504010532 | 48 | 300 | 0.0 | 0.0 | 0.00 | 0.00 | 0.00 | 51 | 1005.1 |
| 20260504010030 | 48 | 300 | 0.0 | 0.0 | 0.00 | 0.00 | 0.00 | 49 | 1005.1 |
| 20260504005530 | 49 | 300 | 0.0 | 0.0 | 0.00 | 0.00 | 0.00 | 49 | 1005.1 |
| 20260504004029 | 49 | 300 | 0.0 | 0.0 | 0.00 | 0.00 | 0.00 | 49 | 1005.1 |
| 20260504003030 | 50 | 300 | 0.0 | 0.0 | 0.00 | 0.00 | 0.00 | 49 | 1005.1 |
| 20260504002529 | 50 | 300 | 0.0 | 0.0 | 0.00 | 0.00 | 0.00 | 49 | 1004.1 |
| 20260504002029 | 50 | 300 | 0.0 | 0.0 | 0.00 | 0.00 | 0.00 | 48 | 1004.1 |
| 20260504001528 | 50 | 300 | 0.0 | 0.0 | 0.00 | 0.00 | 0.00 | 48 | 1004.1 |
| 20260504001028 | 50 | 300 | 0.0 | 0.0 | 0.00 | 0.00 | 0.00 | 48 | 1004.1 |
| 20260504000528 | 51 | 300 | 0.0 | 0.0 | 0.00 | 0.00 | 0.00 | 48 | 1004.1 |
| 20260504000029 | 51 | 300 | 0.0 | 0.0 | 0.00 | 0.00 | 0.00 | 48 | 1004.1 |
| 20260503235528 | 51 | 300 | 0.0 | 0.0 | 0.00 | 0.00 | 0.00 | 48 | 1004.1 |
| 20260503235028 | 51 | 300 | 0.0 | 0.0 | 0.00 | 0.00 | 0.00 | 47 | 1004.1 |
| 20260503234528 | 52 | 300 | 0.0 | 0.0 | 0.00 | 0.00 | 0.00 | 46 | 1004.1 |
| 20260503234029 | 52 | 300 | 0.0 | 0.0 | 0.00 | 0.00 | 0.00 | 45 | 1004.1 |
| 20260503233529 | 52 | 300 | 0.0 | 0.0 | 0.00 | 0.00 | 0.00 | 45 | 1004.1 |
| 20260503231526 | 53 | 300 | 0.0 | 0.0 | 0.00 | 0.00 | 0.00 | 42 | 1004.1 |
| 20260503231027 | 54 | 300 | 0.0 | 0.0 | 0.00 | 0.00 | 0.00 | 41 | 1004.1 |
| 20260503230528 | 54 | 302 | 0.0 | 0.0 | 0.00 | 0.00 | 0.00 | 41 | 1004.1 |
| 20260503230026 | 54 | 278 | 0.0 | 8.0 | 0.00 | 0.00 | 0.00 | 41 | 1004.1 |
| 20260503225526 | 54 | 286 | 8.0 | 8.0 | 0.00 | 0.00 | 0.00 | 41 | 1004.1 |
| 20260503224527 | 55 | 333 | 0.0 | 0.0 | 0.00 | 0.00 | 0.00 | 41 | 1004.1 |
| 20260503224025 | 55 | 344 | 0.0 | 6.0 | 0.00 | 0.00 | 0.00 | 41 | 1004.1 |
| 20260503223528 | 55 | 269 | 6.0 | 6.0 | 0.00 | 0.00 | 0.00 | 41 | 1004.1 |
| 20260503223025 | 55 | 279 | 5.0 | 5.0 | 0.00 | 0.00 | 0.00 | 41 | 1004.1 |
| 20260503222525 | 55 | 3 | 0.0 | 0.0 | 0.00 | 0.00 | 0.00 | 40 | 1004.1 |
| 20260503221525 | 56 | 21 | 0.0 | 0.0 | 0.00 | 0.00 | 0.00 | 40 | 1004.1 |
| 20260503221025 | 56 | 322 | 0.0 | 0.0 | 0.00 | 0.00 | 0.00 | 40 | 1004.1 |
| 20260503220525 | 56 | 301 | 0.0 | 8.0 | 0.00 | 0.00 | 0.00 | 40 | 1004.1 |
| 20260503215522 | 56 | 12 | 0.0 | 10.0 | 0.00 | 0.00 | 0.00 | 39 | 1003.1 |
| 20260503215025 | 56 | 284 | 10.0 | 10.0 | 0.00 | 0.00 | 0.00 | 40 | 1003.1 |
| 20260503214522 | 57 | 290 | 8.0 | 8.0 | 0.00 | 0.00 | 0.00 | 40 | 1003.1 |
| 20260503214022 | 57 | 254 | 0.0 | 0.0 | 0.00 | 0.00 | 0.00 | 41 | 1003.1 |
| 20260503213022 | 57 | 6 | 0.0 | 5.0 | 0.00 | 0.00 | 0.00 | 40 | 1003.1 |
| 20260503212023 | 57 | 264 | 5.0 | 6.0 | 0.00 | 0.00 | 0.00 | 40 | 1004.1 |
| 20260503211021 | 57 | 300 | 0.0 | 0.0 | 0.00 | 0.00 | 0.00 | 40 | 1003.1 |
| 20260503210522 | 57 | 314 | 0.0 | 15.0 | 0.00 | 0.00 | 0.00 | 40 | 1003.1 |
| 20260503210021 | 58 | 288 | 15.0 | 15.0 | 0.00 | 0.00 | 0.00 | 40 | 1003.1 |
| 20260503205521 | 58 | 324 | 6.0 | 6.0 | 0.00 | 0.00 | 0.00 | 41 | 1003.1 |
| 20260503205020 | 58 | 23 | 0.0 | 0.0 | 0.00 | 0.00 | 0.00 | 41 | 1003.1 |